Regional Weather Roundup
Issued by NWS Sterling, VA

Home | Current Version | Previous Version | Text Only | Print | Product List | Glossary On
Versions: 1 2 3 4 5 6 7 8 9 10 11 12 13 14 15 16 17 18 19 20 21 22 23 24 25 26 27
000
ASUS41 KLWX 200610
RWRLWX

REGIONAL WEATHER ROUNDUP
NATIONAL WEATHER SERVICE BALTIMORE MD/WASHINGTON DC
100 AM EST TUE FEB 20 2018

Note: "FAIR" indicates few or no clouds below 12,000 feet
with no significant weather and/or obstructions to visibility.
 TC=TEMPERATURE CELSIUS

 * =Non NWS site. Station does not report precipitation (e.g. rain,
    snow, etc.), thunder, or fog.

DCZ001-MDZ009-015-VAZ040>042-051-053>054-200700-
WASHINGTON METRO

CITY           SKY/WX    TMP DP  RH WIND       PRES   REMARKS
WASHINGTON NAT CLOUDY    50  49  96 S9        30.35S
DULLES         CLOUDY    49  48  97 S10       30.32F
ANDREWS AFB    CLOUDY    50  49  98 S14       30.33F FOG
FT BELVOIR     CLOUDY    51  49  93 CALM      30.35S
QUANTICO       CLOUDY    48  47  96 S10       30.37S
COLLEGE PARK*  CLOUDY    50  48  93 S5        30.33F
LEESBURG*      CLOUDY    45  45 100 S5        30.32F
MANASSAS*      CLOUDY    49  47  93 S7        30.34S
GAITHERSBURG*  CLOUDY    47  46  97 S6        30.32F FOG

$$

MDZ006>007-011-014-200700-
BALTIMORE METRO

CITY           SKY/WX    TMP DP  RH WIND       PRES   REMARKS
BWI AIRPORT    CLOUDY    49  49 100 SW3       30.32F
MD SCIENCE CTR   N/A     44  44 100 MISG      30.33F
MARTIN STATE   FOG       45  45 100 E5        30.35F VSB 1/2
ANNAPOLIS      CLOUDY    48  48 100 S7        30.34F FOG
FORT MEADE*    CLOUDY    50  46  87 SW7       30.35F

$$

MDZ012-015-019>023-200700-
MARYLAND EASTERN SHORE

CITY           SKY/WX    TMP DP  RH WIND       PRES   REMARKS
OCEAN CITY     CLOUDY    49  49 100 S7        30.39F FOG
SALISBURY      CLOUDY    58  57  97 SW9       30.37F
BAY BRIDGE AP* CLOUDY    50  50 100 S7        30.35S FOG
CAMBRIDGE*     CLOUDY    52  52 100 VRB6      30.37F
EASTON*        CLOUDY    53  52  95 SW8       30.39F

$$

MDZ017>025-200700-
SOUTHERN MARYLAND

CITY           SKY/WX    TMP DP  RH WIND       PRES   REMARKS
PATUXENT RIVER CLOUDY    53  52  96 SW6       30.37S FOG
ST INIGOES     CLOUDY    52  36  54 S3        30.37F
LEONARDTOWN*   CLOUDY    52  50  93 SW6       30.39S

$$

MDZ003>005-200700-
NORTH CENTRAL MARYLAND

CITY           SKY/WX    TMP DP  RH WIND       PRES   REMARKS
FREDERICK*     CLOUDY    46  46 100 S3        30.34F
HAGERSTOWN APT CLOUDY    45  41  86 CALM      30.28F
WESTMINSTER*   CLOUDY    48  48 100 S6        30.30S FOG

$$

MDZ501>502-200700-
WESTERN MARYLAND

CITY           SKY/WX    TMP DP  RH WIND       PRES   REMARKS
OAKLAND*       FAIR      54  50  87 S9        30.25F
CUMBERLAND*    FAIR      41  37  87 CALM      30.31F

$$

VAZ025>031-200700-
SHENANDOAH VALLEY

CITY           SKY/WX    TMP DP  RH WIND       PRES   REMARKS
WINCHESTER*    FAIR      50  46  87 SW6       30.30S
FRONT ROYAL*   FAIR      54  50  87 S7        30.28S
LURAY*         FAIR      52  48  87 S5        30.31S
NEW MARKET*    FAIR      52  49  90 W6        30.30S
STAUNTON*      CLOUDY    48  47  95 SE7       30.36S
WAYNESBORO*    CLOUDY    46  46 100 CALM      30.34S

$$

WVZ021-048>050-054>055-200700-
EASTERN WEST VIRGINIA PANHANDLE

CITY           SKY/WX    TMP DP  RH WIND       PRES   REMARKS
MARTINSBURG    FAIR      44  43  96 CALM      30.28S
PETERSBURG*    FAIR      44  43  97 CALM      30.28S

$$

VAZ036>039-050-200700-
CENTRAL FOOTHILLS

CITY           SKY/WX    TMP DP  RH WIND       PRES   REMARKS
CHARLOTTESVILL FAIR      49  46  90 SW7       30.34S
CULPEPER*      CLOUDY    50  47  91 S7        30.35S
ORANGE*        CLOUDY    46  46 100 SW5       30.35S
GORDONSVILLE*  CLOUDY    49  49 100 SW9       30.35F
WARRENTON*     CLOUDY    50  47  87 CALM      30.34R

$$

VAZ055>057-200700-
NORTH AND CENTRAL PIEDMONT

CITY           SKY/WX    TMP DP  RH WIND       PRES   REMARKS
FREDERICKSBRG* CLOUDY    51  51 100 SW12G17   30.36R
STAFFORD*      CLOUDY    51  51 100 SW6       30.40S

$$

NCZ024-NYZ072-PAZ021-071-VAZ022-071-200700-
OTHER REGIONAL OBSERVATIONS

CITY           SKY/WX    TMP DP  RH WIND       PRES   REMARKS
NEW YORK CITY  CLOUDY    49  48  97 W7        30.33R FOG
PHILADELPHIA   FOG       47  47 100 W7        30.34S VSB 1/2
PITTSBURGH     FAIR      64  51  62 S10       30.14R
ROANOKE        CLOUDY    49  48  97 CALM      30.40S FOG
RICHMOND       CLOUDY    51  51 100 S8        30.39S
RALEIGH        FOG       50  50 100 CALM      30.44S VSB 1/8

$$

ANZ530>537-200700-
MARINE OBSERVATIONS

STATION/POSITION TIME  TEMP    WIND        PRES
                       AIR SEA DIR/SP/G
                 (UTC) (F)     (DEG/KT/KT) (MB)
THOMAS PT LIGHT  0600   45 38  180/ 14/ 14   N/A
BALT KEY BRIDGE  0548          140/  7/  8   N/A
COVE POINT       0548          180/  6/  8   N/A
LEWISETTA        0548          230/  6/  8   N/A
SOLOMONS ISLAND  0548          220/  5/  6   N/A

$$





USA.gov is the U.S. government's official web portal to all federal, state and local government web resources and services.